ASIASAT 3S

Last updated on Thu Nov 25 2021 00:02:34 GMT+0000 (Coordinated Universal Time)

1 25657U 99013A 21327.71037115 -.00000256 00000+0 00000+0 0 9999 2 25657 5.9402 68.9638 0001526 104.3379 274.2180 0.99151981 83118
UTC large
Height (km)
Speed (km/s)
/
Latitude / Longitude
Inclination (degrees)
Orbital Period (minutes)
Azimuth
Elevation
Range (km)
Doppler Factor

Next 0 passes for location: London (51.5072 / 0.1276)

Sorry there are no passes over London.